Regional Weather Roundup
Issued by NWS San Angelo, TX

Home | Current Version | Previous Version | Text Only | Print | Product List | Glossary On
Versions: 1 2 3 4 5 6 7 8 9 10 11 12 13 14 15 16 17 18 19 20 21 22 23 24 25 26 27 28 29 30 31 32 33 34 35 36 37 38 39 40 41 42 43 44 45 46 47 48 49 50
000
ASUS44 KSJT 180610
RWRSJT
WEST CENTRAL TEXAS REGIONAL WEATHER ROUNDUP
NATIONAL WEATHER SERVICE SAN ANGELO TX
100 AM CDT THU SEP 18 2014

NOTE: "FAIR" INDICATES FEW OR NO CLOUDS BELOW 12,000 FEET WITH NO
SIGNIFICANT WEATHER AND/OR OBSTRUCTIONS TO VISIBILITY.

TXZ049-054-064>066-071>073-076>078-098-099-113-114-127-128-139-140-
154-155-168>170-180700
...LOCATIONS ACROSS WEST CENTRAL TEXAS...

CITY           SKY/WX    TMP DP  RH WIND       PRES   REMARKS
SAN ANGELO     MOCLDY    74  69  85 SE5       29.94S
ABILENE        CLOUDY    73  69  87 S8        29.93F
DYESS AFB      CLOUDY    73  67  81 SW6       29.93F
JUNCTION       PTCLDY    76  71  85 CALM      29.94S
SWEETWATER     CLOUDY    72  72  99 SE9       29.99F
BROWNWOOD      MOCLDY    72  70  94 CALM      29.93S
COLEMAN        MOCLDY    72  70  93 CALM      29.94S
SONORA         PTCLDY    75  70  83 CALM      29.98F
OZONA          FAIR      75  66  73 SE5       29.97F
BRADY          CLEAR     72  72 100 E3        29.93F
$$

TEXAS PANHANDLE/OKLAHOMA PANHANDLE

CITY           SKY/WX    TMP DP  RH WIND       PRES   REMARKS
AMARILLO       CLOUDY    68  63  84 W7        30.04F
BORGER         MOCLDY    72  62  71 SW7       29.99F
CANADIAN       MOCLDY    71  66  84 SW8       29.94S
DALHART        PTCLDY    59  55  87 SW7       30.05S
DUMAS          MOCLDY    64  61  92 S9        30.02S
GUYMON         NOT AVBL
HEREFORD       RAIN      67  65  96 SE5       30.06F
PAMPA          CLOUDY    70  59  69 SW10      30.00F
PERRYTON       MOCLDY    69  62  79 SW9       29.97S
$$

SOUTHERN PANHANDLE/SOUTH PLAINS/ROLLING PLAINS

CITY           SKY/WX    TMP DP  RH WIND       PRES   REMARKS
LUBBOCK        MOCLDY    67  64  90 S7        30.00F
SNYDER         DRIZZLE   70  68  95 SE6       29.98S
CHILDRESS      CLOUDY    74  70  87 W5        29.95F
SEMINOLE       MOCLDY    67  66  97 SE6       30.03S
$$

PERMIAN BASIN

CITY           SKY/WX    TMP DP  RH WIND       PRES   REMARKS
MIDLAND        LGT RAIN  71  68  90 E21       29.99S
ODESSA         HVY RAIN  70  68  93 E13       30.01S FOG
WINK           MOCLDY    74  68  81 E15       29.94F
$$

FAR WEST/SOUTHWEST MOUNTAINS/TRANS PECOS

CITY           SKY/WX    TMP DP  RH WIND       PRES   REMARKS
ALPINE         MOCLDY    69  63  80 S5        30.09F
DRYDEN           N/A     79  70  74 NE6       29.91F
EL PASO        LGT RAIN  66  64  93 NE15      30.01F
FORT STOCKTON  MOCLDY    73  66  78 SE8       29.96S
GUADALUPE PASS CLOUDY    64  61  90 NE21      30.11R
MARFA          MOCLDY    68  63  83 N5        30.08F
PECOS          MOCLDY    76  66  70 SE6       29.92F
$$

DALLAS/FORT WORTH METROPLEX

CITY           SKY/WX    TMP DP  RH WIND       PRES   REMARKS
DFW AIRPORT    CLOUDY    79  72  79 S12       29.90F
FTW MEACHAM    CLOUDY    79  72  79 S8        29.90F
DAL-EXECUTIVE  CLOUDY    77  72  84 S5        29.90F
GRAND PRAIRIE  CLOUDY    77  70  80 S8        29.91F
ADDISON        CLOUDY    80  69  70 S8        29.93F
MESQUITE       CLOUDY    77  71  82 S6        29.91F
LANCASTER      CLOUDY    76  71  85 CALM      29.92F
$$

NORTH CENTRAL TEXAS

CITY           SKY/WX    TMP DP  RH WIND       PRES   REMARKS
SHRMAN/DENISON CLOUDY    80  69  68 SE6       29.92S
GAINESVILLE    CLOUDY    76  70  83 CALM      29.94R
BRIDGEPORT     CLOUDY    73  73 100 CALM      29.93S
DENTON         CLOUDY    78  71  79 S8        29.90F
WAXAHACHIE     CLOUDY    75  72  90 CALM      29.93S
GRANBURY       CLOUDY    76  72  88 SE5       29.92F
$$

WESTERN NORTH TEXAS

CITY           SKY/WX    TMP DP  RH WIND       PRES   REMARKS
WICHITA FALLS  CLOUDY    73  70  90 MISG      29.90S
VERNON         CLOUDY    77  67  72 SW5       29.91S
BRECKENRIDGE   CLOUDY    74  72  92 S3        29.90F
COMANCHE       CLOUDY    72  72 100 S8        29.93F
$$

CENTRAL AND SOUTH CENTRAL TEXAS

CITY           SKY/WX    TMP DP  RH WIND       PRES   REMARKS
AUSTIN/BERGSTM CLOUDY    77  74  90 SE5       29.89F THUNDER
WACO           CLOUDY    73  71  93 SW9       29.90F
HILLSBORO      CLOUDY    74  72  91 S5        29.92S
TEMPLE         CLOUDY    73  70  88 SE7       29.90F
KILLEEN-GRAY   MOCLDY    72  72 100 S9        29.92F
FORT HOOD      CLOUDY    75  73  93 SE5       29.92F
GEORGETOWN     CLOUDY    72  72 100 E12G18    29.92F THUNDER
LAGO VISTA     TSTM      72  70  93 NE10      29.95F
SAN MARCOS     CLOUDY    77  72  83 SE5       29.91S
NEW BRAUNFELS  CLOUDY    79  72  79 SE8       29.89S
RANDOLPH AFB   CLOUDY    78  73  84 SE8       29.90F
SAN ANTONIO    CLOUDY    80  75  84 SE8       29.90F
STINSON        CLOUDY    79  75  87 SE7       29.87F
PLEASANTON     NOT AVBL
LA GRANGE      CLOUDY    77  77  99 SE3       29.88F
GIDDINGS       CLOUDY    74  73  96 CALM      29.95S
$$

EAST TEXAS

CITY           SKY/WX    TMP DP  RH WIND       PRES   REMARKS
PARIS          PTCLDY    75  64  69 CALM      29.92F
CLARKSVILLE    NOT AVBL
TYLER          CLOUDY    77  72  84 S7        29.92F
LONGVIEW       CLOUDY    76  70  82 SW8       29.91F
PALESTINE      CLOUDY    74  74  99 CALM      29.92F
NACOGDOCHES    CLOUDY    73  72  94 SE5       29.92F
$$

TEXAS HILL COUNTRY AND EDWARDS PLATEAU

CITY           SKY/WX    TMP DP  RH WIND       PRES   REMARKS
LLANO          MOCLDY    73  72  94 E13G18    29.96S
HORSESHOE BAY  CLOUDY    74  69  82 E7G20     29.93S
KERRVILLE      CLOUDY    76  72  86 CALM      29.94S
FREDERICKSBRG  CLOUDY    76  72  88 CALM      29.94S
ROCKSPRINGS    MOCLDY    75  70  83 CALM      29.98S
HONDO          PTCLDY    80  71  74 SE6       29.91S
UVALDE         CLOUDY    81  71  72 SE6       29.90S
DEL RIO        CLOUDY    81  73  76 SE5       29.86F
$$

SOUTHEAST TEXAS

CITY           SKY/WX    TMP DP  RH WIND       PRES   REMARKS
COLLEGE STN    LGT RAIN  76  74  93 CALM      29.91F
CALDWELL       DRIZZLE   73  73 100 CALM      29.95F
CROCKETT       CLOUDY    77  77 100 CALM      29.95F FOG
BRENHAM        DRIZZLE   77  75  95 CALM      29.92S
HUNTSVILLE     CLOUDY    75  74  96 CALM      29.92F
CONROE         FOG       74  74 100 CALM      29.92S VSB 3/4
HOUSTON BUSH   CLOUDY    76  75  97 CALM      29.91S
HOUSTON HOBBY  CLOUDY    77  76  96 CALM      29.89F
PERLAND        CLOUDY   N/A N/A N/A CALM      29.91S
WHARTON        CLOUDY    76  75  96 CALM      29.90S
$$

THE UPPER TEXAS COAST

CITY           SKY/WX    TMP DP  RH WIND       PRES   REMARKS
ORANGE         MOCLDY   N/A N/A N/A CALM      29.92F HAZE
PORT ARTHUR    PTCLDY    75  73  93 CALM      29.90F
GALVESTON      MOCLDY    80  76  87 SE7       29.90F
ANGLETON       CLOUDY    75  74  96 CALM      29.89F
BAY CITY       CLOUDY   N/A N/A N/A SE3       29.88F
$$

TEXAS COASTAL BEND, RIO GRANDE PLAINS DEEP SOUTH TEXAS

CITY           SKY/WX    TMP DP  RH WIND       PRES   REMARKS
VICTORIA       PTCLDY    80  78  94 SE3       29.89S
BEEVILLE       FAIR      79  78  96 S8        29.88S
ROCKPORT       PTCLDY    83  77  82 S8        29.87F
PORT ARANSAS   PTCLDY    83  76  79 S14       29.87F
PORT LAVACA    MOCLDY    78  76  94 S5        29.88F
CORPUS CHRISTI PTCLDY    79  76  90 S7        29.87F
KINGSVILLE NAS PTCLDY    80  78  94 S9        29.87F
COTULLA        PTCLDY    81  72  74 SE7       29.87S
LAREDO         PTCLDY    81  73  76 SE12      29.89F
BROWNSVILLE    CLEAR     78  76  93 SE5       29.90R
PORT ISABEL    PTCLDY    81  76  84 SE6       29.89S
HEBBRONVILLE     N/A     78  73  86 SE7       29.90F
MCALLEN        CLEAR     78  77  96 SE6       29.89S
WESLACO        PTCLDY    78  74  87 SE6       29.88F
FALFURRIAS     PTCLDY   N/A N/A N/A S7        29.87F
EDINBURG       CLEAR     79  75  87 SE3       29.88F
$$


USA.gov is the U.S. government's official web portal to all federal, state and local government web resources and services.